Regional Weather Roundup
Issued by NWS

Home | Current Version | Previous Version | Text Only | Print | Product List | Glossary Off
Versions: 1 2 3 4 5 6 7 8 9 10 11 12 13 14 15 16 17 18 19 20 21 22 23 24 25 26 27 28 29 30 31 32 33 34 35 36 37 38 39 40 41 42 43 44 45 46 47 48 49 50

000
ASUS45 KBOI 221210
RWRID
WEATHER ROUNDUP FOR IDAHO
NATIONAL WEATHER SERVICE BOISE ID
600 AM MDT FRI AUG 22 2014

NOTE: "FAIR" INDICATES FEW OR NO CLOUDS BELOW 12000 FEET
WITH NO SIGNIFICANT WEATHER AND/OR OBSTRUCTIONS TO VISIBILITY

IDZ012-014-221300-
SOUTHWEST IDAHO


CITY           SKY/WX    TMP DP  RH WIND       PRES   REMARKS
BOISE          MOCLDY    60  39  45 NW3       29.89S
CALDWELL       MOCLDY    55  39  54 CALM      29.90S
MOUNTAIN HOME  MOCLDY    64  50  59 SE17      29.88F
$$

IDZ016-017-221300-
SOUTHCENTRAL IDAHO


CITY           SKY/WX    TMP DP  RH WIND       PRES   REMARKS
BURLEY         RAIN      57  55  93 NE5       30.03R FOG
JEROME         CLOUDY    57  54  89 NE16      29.94F
TWIN FALLS     MOCLDY    59  53  80 SE13      29.93F
$$

IDZ019>023-221300-
SOUTHEAST IDAHO


CITY           SKY/WX    TMP DP  RH WIND       PRES   REMARKS
IDAHO FALLS    CLOUDY    52  51  97 NW3       30.06R
POCATELLO      CLOUDY    57  52  83 E10       30.02F
REXBURG        CLOUDY    50  47  89 E7        30.08R
$$

IDZ006-010-011-018-031-032-221300-
CENTRAL IDAHO MOUNTAINS


CITY           SKY/WX    TMP DP  RH WIND       PRES   REMARKS
MCCALL         PTCLDY    42  35  76 CALM      29.98F
HAILEY         MOCLDY    50  46  87 NW8       30.06F
STANLEY          N/A     38  35  89 W3        30.09S
SALMON         MOCLDY    54  50  87 CALM      30.01S
CHALLIS        MOCLDY    52  45  77 N6        30.04S
$$

IDZ002-004-006-007-026-221300-
NORTHERN IDAHO


CITY           SKY/WX    TMP DP  RH WIND       PRES   REMARKS
LEWISTON       MOCLDY    65  43  44 S3        29.89R
LOWELL           N/A     58  53  84 N3        29.93R
COEUR D`ALENE  PTCLDY    55  48  76 N15       29.95S
MULLAN PASS    MOCLDY    45  43  93 SE10G17   30.07S
$$



USA.gov is the U.S. government's official web portal to all federal, state and local government web resources and services.